Wind_Speed
21 22 22 23 23 23 24 24 25 25 25 25 24 25 26 27 26 25 25 25 24 23 24 25 25 25 26 26 26 26 27 27 27 27 28 28 29 28 28 28 28 28 28 28
23 23 24 25 24 24 24 24 26 27 28 25 26 27 28 28 28 27 26 26 26 25 25 25 26 26 27 27 27 27 27 27 27 27 28 28 28 28 28 28 28 28 28 29
24 24 25 25 23 25 25 25 26 27 27 27 28 28 29 29 30 30 29 27 26 26 26 26 27 27 27 27 27 27 27 27 27 28 29 29 28 29 29 29 29 29 29 29
25 26 27 25 24 25 26 26 27 28 28 28 29 29 30 30 31 31 31 29 28 27 27 27 27 27 27 27 27 28 29 29 29 30 30 30 31 31 30 30 30 30 29 29
26 27 28 26 25 25 25 27 27 29 29 28 29 30 31 31 31 31 31 30 29 29 28 28 29 29 29 29 28 29 29 30 30 31 31 32 32 32 32 31 31 30 30 30
26 27 28 26 26 26 27 28 28 29 29 29 29 31 30 31 32 31 31 31 30 30 29 29 30 30 29 29 29 29 30 30 31 31 32 32 32 32 31 31 30 30 29 29
26 27 28 27 27 27 28 29 30 30 30 30 30 30 30 31 32 30 30 30 30 30 30 30 30 30 30 30 30 30 30 31 31 31 31 31 31 31 30 29 29 29 29 29
28 29 29 29 29 29 30 30 30 31 31 30 30 30 30 31 30 30 30 30 30 30 30 30 30 30 30 30 31 31 31 31 31 31 31 30 30 30 30 30 29 29 29 29
30 31 30 30 31 31 31 32 31 32 32 30 30 30 30 30 29 30 30 30 30 29 29 30 30 31 31 31 31 32 32 32 31 31 31 31 30 29 29 29 28 28 28 28
30 30 31 31 31 31 32 33 32 32 32 31 30 30 30 30 30 30 30 31 30 30 30 30 30 30 31 31 32 32 32 32 31 31 31 30 30 29 29 29 29 28 28 28
32 31 31 31 31 31 32 32 33 33 32 32 31 31 31 30 30 30 30 29 30 30 30 30 30 31 31 31 31 32 32 31 31 31 31 31 30 30 29 29 29 29 28 29
32 32 32 32 32 32 33 33 33 33 33 33 33 32 31 32 32 31 30 31 31 30 31 31 31 31 31 31 31 32 32 31 31 31 31 31 31 30 30 30 29 29 29 29
32 33 33 33 33 33 34 33 33 33 33 32 32 32 32 32 33 32 32 32 32 32 32 32 32 32 32 32 32 32 32 31 31 30 31 31 31 30 30 30 30 30 30 30
33 34 34 34 33 33 33 34 33 33 33 32 32 32 32 32 33 33 34 34 33 33 33 34 34 33 32 32 32 33 33 32 32 32 32 32 31 31 31 31 30 30 30 30
33 34 34 34 33 33 33 33 33 33 33 32 32 32 33 32 32 33 34 34 34 33 33 34 33 33 32 32 32 32 32 33 33 33 33 33 33 32 32 32 31 31 30 30
32 33 33 33 33 33 33 32 32 32 32 31 31 32 33 32 32 32 33 33 33 32 32 32 33 33 33 33 33 33 33 33 33 33 33 33 33 32 32 31 31 31 32 32
32 32 32 32 32 33 33 33 33 32 32 32 32 33 33 33 32 32 32 33 33 33 33 33 33 33 34 34 34 34 34 34 33 32 32 33 33 33 32 32 32 32 32 32
31 31 31 31 32 32 33 33 33 33 33 33 33 33 33 32 32 32 31 32 32 32 33 33 33 34 34 34 34 35 35 34 33 32 32 31 31 31 30 31 31 32 32 32
31 31 31 31 32 32 33 33 33 34 33 33 33 32 32 32 32 32 31 31 32 33 33 34 35 35 35 35 35 35 35 34 34 33 32 31 30 31 30 30 30 30 30 31
32 32 32 32 32 32 32 33 33 33 33 33 33 32 31 31 31 31 32 32 32 32 33 34 35 35 35 35 34 34 33 33 33 33 32 31 31 31 30 30 30 30 30 30
32 32 32 32 32 32 32 32 32 32 32 32 32 32 31 31 31 32 33 33 33 34 34 35 34 34 34 34 34 33 32 32 33 32 32 31 31 30 30 30 30 30 30 31
32 32 32 32 33 32 32 31 31 31 32 32 32 32 32 32 33 33 34 34 34 34 34 33 33 32 33 33 33 33 33 33 32 30 30 30 30 30 29 29 29 29 30 30
32 32 32 32 32 32 32 31 31 31 32 32 31 32 32 33 34 34 34 34 34 33 33 32 32 32 32 32 31 31 31 31 31 30 29 28 28 28 29 29 30 30 30 30
31 32 31 31 31 30 30 30 30 31 31 30 31 32 32 32 33 33 33 32 32 32 32 31 31 31 31 31 31 30 30 30 30 29 28 27 27 28 29 30 30 30 30 30
31 31 30 30 30 30 30 30 30 30 30 30 31 30 30 30 31 31 31 31 31 31 30 29 30 30 30 29 29 29 29 29 28 29 28 27 27 28 29 29 30 29 30 30
31 31 30 30 30 30 30 30 30 29 29 29 29 29 29 30 30 30 30 29 29 29 28 28 28 29 28 28 27 28 28 28 28 28 28 28 28 28 29 29 29 29 30 30
31 30 30 29 29 29 30 30 30 30 29 29 29 29 29 29 29 29 28 28 28 28 28 28 27 27 27 27 27 26 26 27 27 28 28 28 29 29 29 29 29 29 30 30
Wind_Direction
269 270 270 272 274 273 272 272 274 275 273 274 276 276 278 279 281 279 276 275 276 276 276 275 275 274 275 276 276 276 277 276 277 277 277 278 278 279 280 280 280 279 279 279
269 272 272 272 273 273 272 271 274 274 273 273 270 273 277 280 281 279 278 277 277 277 277 276 276 275 276 276 276 276 276 276 277 278 278 279 279 280 280 280 280 279 278 276
271 272 272 273 274 275 277 276 275 274 276 277 275 275 278 279 279 278 279 277 277 276 279 278 277 277 276 277 276 276 277 277 278 279 280 279 279 280 280 280 280 279 277 275
274 272 272 278 276 275 276 276 277 276 277 279 280 277 276 276 276 276 277 277 276 277 277 279 280 279 278 277 277 277 278 278 279 279 279 279 279 279 279 279 278 277 276 275
276 275 276 276 277 277 277 277 278 278 279 280 280 278 276 275 274 273 274 275 277 277 277 279 280 280 279 280 279 278 279 279 279 280 280 279 279 278 278 278 277 276 276 274
277 279 280 279 278 279 279 279 280 282 282 281 280 279 278 277 275 273 273 274 276 275 277 278 279 280 281 282 280 279 279 279 279 280 280 279 279 279 279 278 277 276 275 274
275 278 281 280 279 279 278 281 283 283 283 282 280 280 279 277 275 274 273 274 275 275 276 277 278 279 280 281 281 280 279 279 279 280 280 279 278 278 278 278 277 276 275 275
278 278 280 282 282 279 280 282 283 283 282 281 281 279 278 277 275 274 273 272 274 274 275 276 277 278 279 281 281 280 280 280 280 280 280 280 279 278 277 277 276 276 276 276
279 280 282 282 282 281 281 282 283 282 281 281 281 279 278 276 274 272 271 271 273 273 275 276 276 277 278 280 281 281 281 281 281 280 280 280 280 279 277 276 275 274 274 275
280 279 281 282 281 281 281 281 281 281 279 279 280 278 276 276 275 273 273 273 273 274 275 275 275 277 280 281 282 282 282 281 279 279 279 280 280 280 279 276 273 273 272 273
281 281 280 281 281 281 280 279 279 279 278 278 279 278 277 275 275 273 272 273 275 277 278 277 278 278 280 282 282 282 282 280 279 279 278 278 278 279 279 277 274 273 274 273
280 281 282 282 281 281 282 281 280 279 278 278 278 278 277 276 276 275 274 275 276 277 278 278 278 278 279 281 282 282 282 281 280 279 279 278 278 277 277 277 276 275 274 274
282 282 283 282 282 282 281 281 281 280 280 279 278 278 277 277 276 276 275 275 276 276 277 278 278 278 278 279 280 281 281 280 279 279 278 278 277 276 276 276 276 275 274 273
283 283 283 282 283 283 282 281 281 281 281 280 280 279 280 279 278 277 277 276 276 277 277 278 278 278 278 278 279 279 279 279 279 280 279 278 276 275 275 275 275 276 274 272
283 284 284 284 283 283 281 281 281 281 280 281 281 281 281 281 280 279 278 278 277 277 277 278 278 277 277 277 277 278 279 280 280 279 278 277 275 276 275 273 274 274 274 272
284 284 284 284 282 281 280 279 280 281 280 281 281 281 281 282 282 281 280 279 277 276 277 277 278 278 277 277 277 277 278 279 279 278 276 276 275 276 276 274 275 274 272 271
286 286 285 284 282 281 280 279 280 281 280 282 282 281 282 283 284 283 282 280 278 277 278 277 278 278 277 277 277 277 277 277 277 277 276 275 274 275 276 276 274 272 272 272
286 286 286 285 284 282 281 279 279 280 281 282 282 281 283 283 284 284 283 281 280 279 278 279 279 278 278 278 278 276 275 275 275 275 275 275 276 276 275 276 276 274 273 273
286 286 285 284 284 282 281 281 280 280 281 282 281 281 282 282 282 282 282 282 281 280 279 278 277 278 278 278 279 278 276 273 273 273 273 272 273 274 274 275 275 275 274 274
286 285 285 284 285 284 283 282 281 281 281 281 281 281 280 281 281 282 283 283 283 282 280 279 278 278 278 278 278 276 275 274 273 273 271 270 270 271 272 272 272 273 274 275
286 285 284 284 285 285 284 283 283 282 282 282 282 280 279 280 281 282 283 284 284 284 283 281 279 279 279 278 277 276 275 273 272 272 270 268 269 270 271 272 273 274 275 276
286 285 285 285 285 285 284 284 285 284 284 284 283 280 280 281 282 283 283 284 284 284 284 283 281 279 279 278 277 275 274 272 269 268 270 268 268 270 271 272 274 276 277 277
287 287 286 286 286 286 285 285 285 285 285 285 283 282 283 283 282 283 284 285 285 285 284 283 281 280 279 279 277 276 275 273 269 268 270 269 269 269 271 273 275 276 277 278
288 289 289 288 288 288 288 288 288 287 287 286 285 285 284 284 283 283 284 284 284 284 282 281 281 279 277 277 276 275 273 272 270 268 269 269 270 270 272 273 274 276 276 276
289 290 289 288 289 289 289 289 290 289 288 287 287 286 285 286 285 284 285 286 284 282 280 279 280 280 279 277 276 276 274 272 270 268 268 270 271 272 272 273 274 274 275 276
289 289 289 288 289 289 289 290 291 290 289 288 288 287 286 286 286 286 287 287 285 283 281 280 280 281 281 280 279 277 275 274 272 271 271 272 272 273 274 274 274 275 275 276
287 288 288 288 289 289 290 291 292 292 291 289 287 287 287 288 287 287 287 286 286 285 284 282 281 281 281 280 279 277 276 274 273 273 273 274 275 276 276 276 276 275 274 275
Height
5789 5789 5789 5789 5789 5789 5788 5788 5788 5788 5787 5787 5787 5785 5784 5783 5784 5783 5783 5783 5783 5782 5781 5781 5781 5781 5781 5780 5780 5780 5779 5778 5778 5777 5777 5776 5775 5774 5774 5773 5772 5772 5771 5771
5783 5783 5782 5782 5783 5782 5782 5782 5781 5780 5780 5780 5779 5778 5777 5777 5776 5776 5776 5775 5775 5774 5774 5773 5773 5773 5773 5772 5772 5772 5771 5771 5770 5769 5769 5768 5767 5766 5766 5765 5764 5763 5763 5763
5775 5776 5775 5775 5777 5775 5775 5774 5774 5772 5773 5772 5771 5770 5770 5770 5769 5768 5768 5767 5767 5766 5766 5766 5766 5765 5765 5764 5764 5763 5763 5762 5762 5761 5761 5760 5759 5758 5757 5756 5756 5755 5754 5754
5768 5769 5767 5772 5770 5768 5768 5767 5766 5765 5764 5764 5763 5762 5762 5761 5761 5760 5760 5760 5759 5759 5759 5758 5757 5757 5756 5756 5755 5755 5754 5754 5753 5752 5752 5751 5750 5749 5748 5748 5747 5746 5746 5745
5761 5760 5760 5762 5762 5760 5760 5759 5758 5757 5757 5756 5755 5754 5753 5752 5752 5751 5751 5751 5751 5751 5750 5750 5749 5749 5748 5747 5747 5746 5746 5745 5744 5743 5742 5741 5740 5739 5739 5738 5738 5737 5737 5737
5754 5753 5752 5755 5754 5753 5753 5751 5750 5749 5749 5748 5747 5745 5745 5744 5743 5742 5742 5742 5742 5742 5742 5741 5741 5740 5740 5739 5738 5737 5737 5736 5735 5734 5733 5732 5731 5730 5729 5729 5728 5728 5728 5727
5748 5746 5745 5746 5746 5746 5745 5744 5742 5741 5740 5739 5737 5736 5736 5734 5733 5733 5733 5734 5734 5734 5733 5733 5732 5731 5731 5730 5729 5729 5727 5726 5725 5724 5723 5722 5721 5721 5720 5720 5719 5719 5719 5719
5740 5739 5740 5738 5738 5737 5736 5734 5733 5732 5731 5730 5728 5727 5726 5725 5725 5725 5724 5725 5725 5725 5724 5724 5723 5722 5722 5721 5720 5719 5718 5717 5716 5715 5713 5713 5712 5711 5711 5711 5710 5710 5710 5710
5733 5733 5732 5730 5729 5728 5726 5725 5724 5723 5722 5720 5719 5719 5718 5717 5717 5716 5716 5716 5716 5716 5715 5715 5714 5713 5713 5712 5711 5709 5708 5707 5706 5705 5704 5703 5703 5702 5702 5701 5701 5701 5701 5701
5723 5723 5722 5722 5720 5719 5718 5716 5715 5714 5713 5712 5711 5710 5709 5709 5708 5708 5707 5707 5707 5707 5706 5706 5705 5704 5703 5702 5701 5699 5698 5697 5697 5696 5695 5695 5694 5693 5692 5692 5692 5692 5693 5693
5715 5714 5713 5712 5711 5710 5708 5707 5705 5704 5703 5703 5702 5701 5700 5700 5699 5699 5699 5698 5698 5698 5697 5697 5696 5695 5694 5692 5691 5689 5689 5688 5687 5686 5686 5685 5685 5684 5684 5683 5683 5684 5684 5684
5706 5705 5704 5703 5702 5700 5699 5698 5696 5695 5694 5694 5693 5692 5691 5691 5690 5690 5689 5689 5689 5688 5688 5687 5686 5685 5684 5683 5682 5680 5679 5679 5678 5677 5676 5676 5676 5676 5675 5675 5675 5675 5675 5676
5697 5696 5694 5693 5692 5691 5689 5688 5687 5686 5685 5684 5684 5683 5682 5682 5681 5680 5680 5680 5679 5679 5678 5677 5676 5675 5674 5673 5672 5671 5670 5669 5669 5668 5667 5667 5667 5667 5667 5667 5666 5667 5667 5667
5688 5686 5685 5684 5683 5681 5680 5679 5678 5677 5676 5675 5674 5674 5673 5672 5671 5671 5670 5669 5669 5668 5668 5667 5666 5665 5664 5663 5662 5661 5661 5660 5659 5659 5658 5657 5657 5657 5657 5657 5658 5658 5658 5658
5679 5677 5675 5674 5673 5672 5670 5669 5668 5668 5667 5666 5665 5664 5663 5662 5661 5660 5660 5659 5658 5657 5657 5656 5655 5654 5653 5653 5652 5651 5650 5650 5649 5649 5648 5648 5647 5647 5647 5647 5648 5648 5648 5649
5669 5667 5666 5664 5663 5662 5661 5660 5659 5658 5657 5656 5655 5654 5653 5652 5651 5650 5649 5648 5647 5646 5646 5645 5644 5644 5643 5642 5641 5641 5640 5640 5639 5638 5638 5637 5637 5637 5636 5637 5638 5638 5639 5639
5660 5658 5657 5655 5654 5652 5651 5650 5649 5648 5648 5647 5646 5645 5644 5642 5641 5640 5639 5637 5636 5636 5635 5634 5634 5633 5632 5631 5631 5631 5630 5629 5629 5628 5627 5627 5627 5627 5627 5628 5628 5628 5628 5629
5651 5649 5648 5646 5645 5643 5642 5641 5640 5639 5638 5637 5636 5634 5633 5632 5631 5630 5629 5627 5626 5626 5625 5624 5623 5622 5621 5621 5620 5620 5619 5619 5619 5618 5618 5617 5617 5617 5617 5618 5618 5618 5618 5618
5642 5640 5639 5637 5635 5634 5633 5631 5630 5629 5628 5627 5626 5624 5623 5622 5621 5620 5619 5617 5616 5616 5615 5614 5613 5612 5611 5610 5609 5609 5608 5608 5608 5608 5608 5608 5608 5608 5608 5608 5608 5608 5608 5608
5633 5631 5630 5628 5626 5625 5623 5621 5620 5619 5618 5617 5616 5614 5614 5613 5612 5610 5609 5608 5607 5605 5604 5603 5602 5601 5600 5599 5598 5598 5597 5597 5597 5597 5597 5598 5598 5598 5598 5598 5598 5598 5598 5597
5624 5622 5620 5619 5617 5615 5614 5612 5611 5610 5608 5607 5606 5605 5604 5603 5602 5601 5599 5598 5597 5595 5593 5592 5591 5590 5589 5588 5587 5587 5586 5586 5586 5587 5587 5587 5587 5587 5587 5588 5587 5587 5587 5587
5614 5612 5611 5609 5608 5606 5604 5603 5601 5600 5599 5597 5596 5595 5594 5593 5592 5590 5589 5587 5586 5584 5582 5581 5580 5579 5578 5577 5576 5576 5575 5575 5576 5576 5576 5577 5577 5577 5578 5578 5578 5577 5577 5576
5604 5602 5601 5599 5598 5596 5595 5593 5592 5590 5589 5587 5586 5585 5584 5582 5581 5580 5578 5577 5575 5573 5571 5570 5569 5568 5567 5566 5565 5565 5565 5565 5565 5565 5566 5566 5567 5568 5568 5568 5568 5567 5567 5567
5595 5593 5592 5590 5588 5587 5585 5584 5582 5581 5579 5578 5576 5575 5573 5572 5570 5569 5567 5566 5564 5562 5561 5560 5559 5557 5556 5556 5555 5555 5555 5555 5555 5556 5556 5556 5557 5557 5558 5558 5558 5558 5557 5557
5586 5584 5583 5581 5580 5578 5577 5575 5573 5571 5570 5568 5567 5565 5563 5562 5560 5559 5557 5555 5553 5552 5551 5549 5548 5547 5546 5546 5545 5545 5545 5545 5545 5545 5546 5546 5547 5547 5547 5547 5547 5547 5547 5547
5578 5576 5574 5573 5571 5569 5568 5566 5564 5562 5561 5559 5558 5556 5554 5553 5551 5549 5547 5545 5543 5542 5541 5540 5539 5538 5537 5536 5536 5535 5535 5535 5535 5536 5536 5536 5537 5537 5537 5537 5537 5537 5537 5537
5569 5567 5566 5564 5563 5561 5559 5557 5555 5553 5552 5550 5548 5547 5545 5543 5541 5539 5537 5536 5534 5532 5531 5530 5529 5529 5528 5527 5526 5526 5526 5526 5526 5526 5526 5526 5527 5526 5526 5526 5526 5526 5526 5526